Marshalltown, IA

8:20 AM CST on January 19, 2018 (GMT -0600)
Marshalltown Municipal

Weather History for KMIW - March, 2013

Change the Weather History Date:

Sunday, March 3, 2013

  Actual Average Record
Temperature  
Mean Temperature 22 °F 30 °F  
Max Temperature 30 °F 39 °F 47 °F (2011)
Min Temperature 14 °F 20 °F -16 °F (2014)
Degree Days  
Heating Degree Days 43 35  
Month to date heating degree days 141 107  
Since 1 July heating degree days 5145 5510  
Cooling Degree Days 0 0  
Month to date cooling degree days 0 0  
Year to date cooling degree days 0 0  
Moisture  
Dew Point 16 °F    
Average Humidity 73    
Maximum Humidity 88    
Minimum Humidity 58    
Precipitation  
Precipitation T in 0.05 in 0.04 in (2014)
Month to date precipitation T 0.15  
Sea Level Pressure  
Sea Level Pressure 30.08 in    
Wind  
Wind Speed 10 mph (SE)    
Max Wind Speed 20 mph    
Max Gust Speed 24 mph    
Visibility 9 miles    
Events Snow    
T = Trace of Precipitation, MM = Missing Value Source: NWS Daily Summary

Daily Weather History Graph

Daily Weather History Graph

Search for Another Location

Airport or City:

Trip Planner

Search our weather history database for the weather conditions in past years. The results will help you decide how hot, cold, wet, or windy it might be!

Date:

Astronomy

Mar. 03, 2013 Rise Set
Actual Time 6:43 AM CST 6:04 PM CST
Civil Twilight 6:15 AM CST 6:32 PM CST
Nautical Twilight 5:42 AM CST 7:04 PM CST
Astronomical Twilight 5:10 AM CST 7:37 PM CST
Moon No Moon Rise 9:51 AM CST (3/3)
Length of Visible Light 12h 17m
Length of Day
11h 21m
Waning Gibbous, 63% of the Moon is Illuminated
Mar 3
Waning Gibbous
Mar 4
Last Quarter
Mar 11
New
Mar 19
First Quarter
Mar 27
Full

Hourly Weather History & Observations

Time (CST) Temp. Windchill Dew Point Humidity Pressure Visibility Wind Dir Wind Speed Gust Speed Precip Events Conditions
12:53 AM 16.0 °F - 12.9 °F 88% 30.21 in 9.0 mi Calm Calm - N/A   Overcast
1:53 AM 17.1 °F 11.7 °F 14.0 °F 88% 30.18 in 8.0 mi SSE 3.5 mph - N/A   Overcast
2:53 AM 15.1 °F - 12.0 °F 88% 30.17 in 8.0 mi Calm Calm - N/A   Scattered Clouds
3:53 AM 14.0 °F 5.1 °F 10.9 °F 88% 30.16 in 8.0 mi ESE 5.8 mph - N/A   Overcast
4:53 AM 15.1 °F 9.4 °F 12.0 °F 88% 30.15 in 8.0 mi SSE 3.5 mph - N/A   Overcast
5:53 AM 16.0 °F 8.8 °F 12.9 °F 88% 30.15 in 9.0 mi ESE 4.6 mph - N/A   Overcast
6:53 AM 17.1 °F 6.6 °F 12.9 °F 84% 30.14 in 9.0 mi SE 8.1 mph - N/A   Overcast
7:53 AM 18.0 °F 8.7 °F 12.9 °F 81% 30.14 in 10.0 mi SE 6.9 mph - N/A   Overcast
8:53 AM 18.0 °F 6.9 °F 12.9 °F 81% 30.14 in 10.0 mi East 9.2 mph - N/A   Clear
9:53 AM 19.0 °F 8.2 °F 15.1 °F 85% 30.14 in 10.0 mi East 9.2 mph - N/A   Mostly Cloudy
10:53 AM 24.1 °F 13.1 °F 17.1 °F 75% 30.13 in 10.0 mi SE 11.5 mph - N/A   Overcast
11:53 AM 27.0 °F 17.3 °F 18.0 °F 69% 30.11 in 10.0 mi SE 10.4 mph - N/A   Overcast
12:53 PM 28.0 °F 17.5 °F 19.0 °F 69% 30.08 in 10.0 mi SE 12.7 mph - N/A   Overcast
1:53 PM 28.9 °F 17.3 °F 21.0 °F 72% 30.04 in 10.0 mi ESE 16.1 mph - N/A   Partly Cloudy
2:53 PM 30.0 °F 19.1 °F 18.0 °F 61% 30.02 in 10.0 mi SE 15.0 mph - N/A   Clear
4:53 PM 28.9 °F 17.3 °F 19.0 °F 67% 30.01 in 10.0 mi ESE 16.1 mph - N/A   Clear
5:53 PM 28.0 °F 17.5 °F 19.0 °F 69% 30.01 in 10.0 mi ESE 12.7 mph - N/A   Overcast
6:53 PM 27.0 °F 15.6 °F 17.1 °F 66% 29.99 in 10.0 mi ESE 13.8 mph - N/A   Overcast
7:53 PM 27.0 °F 16.7 °F 17.1 °F 66% 30.00 in 10.0 mi ESE 11.5 mph - N/A   Overcast
8:53 PM 27.0 °F 13.9 °F 16.0 °F 63% 30.00 in 10.0 mi ESE 18.4 mph - N/A   Overcast
9:53 PM 27.0 °F 14.7 °F 16.0 °F 63% 29.99 in 10.0 mi ESE 16.1 mph - N/A   Overcast
10:53 PM 27.0 °F 14.7 °F 16.0 °F 63% 30.01 in 10.0 mi SE 16.1 mph - N/A   Overcast
11:20 PM 26.6 °F 15.2 °F 15.8 °F 64% 29.96 in 10.0 mi SE 13.8 mph - N/A   Overcast
11:53 PM 25.0 °F 11.7 °F 18.0 °F 75% 30.00 in 2.5 mi SE 17.3 mph - 0.00 in Snow Light Snow